TimeCDT,TemperatureF,Dew PointF,Humidity,Sea Level PressureIn,VisibilityMPH,Wind Direction,Wind SpeedMPH,Gust SpeedMPH,PrecipitationIn,Events,Conditions,WindDirDegrees,DateUTC
12:35 AM,60.8,51.8,72,29.96,10.0,SSE,5.8,-,N/A,,Clear,160,2012-10-03 05:35:00
12:55 AM,60.8,51.8,72,29.96,10.0,SSE,5.8,-,N/A,,Clear,160,2012-10-03 05:55:00
1:15 AM,59.0,51.8,77,29.97,10.0,SSE,6.9,-,N/A,,Clear,160,2012-10-03 06:15:00
1:36 AM,59.0,51.8,77,29.97,10.0,SSE,5.8,-,N/A,,Clear,160,2012-10-03 06:36:00
1:55 AM,59.0,51.8,77,29.97,10.0,South,6.9,-,N/A,,Clear,180,2012-10-03 06:55:00
2:15 AM,60.8,51.8,72,29.98,10.0,South,5.8,-,N/A,,Clear,180,2012-10-03 07:15:00
2:55 AM,60.8,51.8,72,29.98,10.0,South,5.8,-,N/A,,Clear,170,2012-10-03 07:55:00
3:15 AM,60.8,51.8,72,29.98,10.0,South,5.8,-,N/A,,Clear,170,2012-10-03 08:15:00
3:35 AM,60.8,51.8,72,29.97,10.0,South,5.8,-,N/A,,Clear,170,2012-10-03 08:35:00
3:56 AM,60.8,51.8,72,29.97,10.0,South,4.6,-,N/A,,Clear,170,2012-10-03 08:56:00
4:15 AM,59.0,51.8,77,29.98,10.0,SSW,5.8,-,N/A,,Clear,200,2012-10-03 09:15:00
4:35 AM,57.2,51.8,82,29.99,10.0,South,5.8,-,N/A,,Clear,190,2012-10-03 09:35:00
5:15 AM,57.2,51.8,82,30.00,10.0,SSE,8.1,-,N/A,,Clear,160,2012-10-03 10:15:00
5:55 AM,57.2,51.8,82,30.02,10.0,South,4.6,-,N/A,,Clear,170,2012-10-03 10:55:00
6:35 AM,57.2,51.8,82,30.03,10.0,SSE,6.9,-,N/A,,Clear,150,2012-10-03 11:35:00
6:55 AM,57.2,51.8,82,30.03,10.0,South,5.8,-,N/A,,Clear,180,2012-10-03 11:55:00
7:35 AM,57.2,51.8,82,30.04,10.0,South,4.6,-,N/A,,Clear,170,2012-10-03 12:35:00
7:55 AM,59.0,51.8,77,30.05,10.0,South,4.6,-,N/A,,Clear,180,2012-10-03 12:55:00
8:15 AM,59.0,51.8,77,30.05,10.0,SSE,4.6,-,N/A,,Clear,160,2012-10-03 13:15:00
8:35 AM,62.6,53.6,72,30.05,10.0,SSE,9.2,-,N/A,,Clear,160,2012-10-03 13:35:00
8:55 AM,62.6,53.6,72,30.06,10.0,South,8.1,-,N/A,,Clear,190,2012-10-03 13:55:00
9:15 AM,66.2,53.6,64,30.07,10.0,South,10.4,-,N/A,,Clear,180,2012-10-03 14:15:00
9:55 AM,69.8,55.4,60,30.07,4.0,South,9.2,-,0.02,,Clear,190,2012-10-03 14:55:00
10:15 AM,71.6,55.4,57,30.07,10.0,NW,3.5,-,N/A,,Clear,310,2012-10-03 15:15:00
10:36 AM,73.4,55.4,53,30.07,10.0,NW,3.5,-,N/A,,Clear,310,2012-10-03 15:36:00
10:55 AM,73.4,55.4,53,30.07,10.0,NW,3.5,-,N/A,,Clear,310,2012-10-03 15:55:00
11:35 AM,75.2,53.6,47,30.07,10.0,WNW,3.5,-,N/A,,Clear,300,2012-10-03 16:35:00
11:55 AM,75.2,53.6,47,30.07,10.0,SSW,11.5,17.3,N/A,,Clear,200,2012-10-03 16:55:00
12:55 PM,75.2,53.6,47,30.06,10.0,SSW,9.2,-,N/A,,Clear,200,2012-10-03 17:55:00
1:15 PM,75.2,53.6,47,30.06,10.0,SSW,9.2,-,N/A,,Clear,210,2012-10-03 18:15:00
1:35 PM,77.0,53.6,44,30.05,10.0,SSW,6.9,-,N/A,,Clear,200,2012-10-03 18:35:00
1:55 PM,78.8,51.8,39,30.05,10.0,SW,8.1,-,N/A,,Clear,220,2012-10-03 18:55:00
2:15 PM,77.0,51.8,41,30.04,10.0,South,9.2,-,N/A,,Clear,180,2012-10-03 19:15:00
2:36 PM,78.8,53.6,42,30.04,10.0,SW,6.9,-,N/A,,Clear,220,2012-10-03 19:36:00
2:55 PM,78.8,55.4,44,30.03,10.0,SW,9.2,-,N/A,,Clear,220,2012-10-03 19:55:00
3:15 PM,78.8,55.4,44,30.03,10.0,SSW,8.1,-,N/A,,Clear,210,2012-10-03 20:15:00
3:55 PM,78.8,53.6,42,30.03,10.0,SSW,9.2,-,N/A,,Clear,210,2012-10-03 20:55:00
4:15 PM,78.8,51.8,39,30.03,10.0,SSW,9.2,-,N/A,,Clear,210,2012-10-03 21:15:00
4:35 PM,77.0,53.6,44,30.04,10.0,SW,5.8,-,N/A,,Clear,220,2012-10-03 21:35:00
4:56 PM,78.8,53.6,42,30.04,10.0,SSW,10.4,-,N/A,,Clear,200,2012-10-03 21:56:00
5:15 PM,77.0,51.8,41,30.04,10.0,SSW,9.2,-,N/A,,Clear,210,2012-10-03 22:15:00
5:56 PM,75.2,53.6,47,30.04,10.0,SSW,9.2,-,N/A,,Clear,200,2012-10-03 22:56:00
6:15 PM,75.2,53.6,47,30.05,10.0,SSW,5.8,-,N/A,,Clear,210,2012-10-03 23:15:00
6:35 PM,73.4,55.4,53,30.05,10.0,SSW,5.8,-,N/A,,Clear,210,2012-10-03 23:35:00
7:15 PM,69.8,55.4,60,30.06,10.0,South,4.6,-,N/A,,Clear,190,2012-10-04 00:15:00
7:35 PM,69.8,55.4,60,30.07,10.0,South,3.5,-,N/A,,Clear,180,2012-10-04 00:35:00
8:15 PM,68.0,55.4,64,30.08,10.0,SE,6.9,-,N/A,,Clear,140,2012-10-04 01:15:00
8:35 PM,66.2,55.4,68,30.08,8.0,SE,5.8,-,N/A,,Clear,130,2012-10-04 01:35:00
8:55 PM,66.2,55.4,68,30.09,2.5,SE,6.9,-,N/A,,Clear,140,2012-10-04 01:55:00
9:35 PM,64.4,55.4,73,30.10,1.8,SE,6.9,-,N/A,,Clear,130,2012-10-04 02:35:00
9:55 PM,64.4,55.4,73,30.10,3.0,SE,6.9,-,N/A,,Clear,130,2012-10-04 02:55:00
10:15 PM,64.4,55.4,73,30.11,5.0,SE,6.9,-,N/A,,Clear,130,2012-10-04 03:15:00
10:36 PM,64.4,55.4,73,30.11,10.0,SE,5.8,-,N/A,,Clear,130,2012-10-04 03:36:00
10:55 PM,62.6,55.4,77,30.12,10.0,SE,4.6,-,N/A,,Clear,140,2012-10-04 03:55:00
11:35 PM,62.6,53.6,72,30.12,10.0,SE,4.6,-,N/A,,Clear,130,2012-10-04 04:35:00
11:55 PM,62.6,53.6,72,30.12,10.0,SE,5.8,-,N/A,,Clear,130,2012-10-04 04:55:00